Wind_Speed
3 4 4 5 6 6 6 6 6 6 6 6 6 6 5 5 4 3 2 2 3 5 7 8 10 11 12 14 15 14 14 14 15 14 12 11 10 9 9 8 8 8 7
1 1 2 2 3 3 4 4 4 4 4 5 5 5 5 4 4 3 2 2 2 3 5 7 8 9 11 12 12 13 12 13 14 14 13 13 12 11 11 10 9 8 6
2 2 1 1 1 1 1 1 2 2 2 3 3 3 4 3 3 3 3 2 1 2 4 5 7 8 9 10 11 11 11 12 13 14 14 14 13 12 12 10 9 7 6
4 4 3 3 3 3 3 2 2 2 2 2 2 2 2 2 2 3 3 2 2 2 3 4 5 7 7 8 9 9 10 11 12 13 13 13 13 13 11 10 9 7 6
6 6 6 6 6 5 5 5 5 4 4 3 3 2 2 2 2 2 2 2 2 1 2 3 4 5 6 7 7 8 9 9 9 10 11 11 11 10 10 9 8 7 6
7 7 8 8 8 8 8 8 7 7 6 6 5 4 4 3 2 2 2 2 2 2 2 2 3 4 4 5 5 6 6 7 8 8 8 9 9 9 8 8 7 6 5
8 9 9 9 10 11 11 10 10 10 9 8 7 7 6 5 4 3 3 2 2 2 2 2 2 3 3 3 4 4 4 5 6 6 6 6 7 7 7 6 6 4 3
9 10 11 11 11 12 13 13 13 12 12 11 10 9 8 8 7 6 5 4 3 3 3 3 3 3 3 3 3 3 3 4 4 4 5 6 6 6 6 5 4 3 3
11 12 12 13 13 14 14 15 15 15 15 14 13 12 11 10 9 8 7 6 5 4 4 3 3 3 3 3 3 3 3 4 4 4 4 5 5 5 5 5 5 4 4
14 14 15 15 16 16 17 17 17 17 17 17 16 16 15 14 13 11 10 9 8 6 5 5 4 4 4 4 3 3 4 4 4 4 4 5 5 5 5 5 5 5 5
18 18 18 18 18 19 19 19 20 20 20 19 19 19 18 17 16 15 13 13 11 10 8 7 5 5 4 4 4 4 5 5 4 4 5 6 5 5 5 5 6 6 5
23 23 23 23 22 22 21 22 22 22 21 22 22 22 22 21 20 19 17 16 15 13 12 10 8 7 6 5 5 5 6 6 5 5 6 6 6 6 6 7 7 6 6
29 29 28 28 27 27 26 25 25 24 24 24 24 24 24 23 24 23 21 20 18 17 15 14 12 10 8 7 6 6 7 6 6 6 6 6 6 6 7 7 7 7 6
33 33 32 32 32 31 31 30 30 28 27 27 27 26 26 25 25 25 25 24 22 21 19 17 15 14 12 10 9 8 8 8 7 7 7 7 7 7 7 7 7 7 6
36 36 36 37 36 36 35 34 33 32 32 31 31 29 28 28 27 26 27 27 26 25 23 21 19 17 15 13 12 11 10 9 9 9 8 8 8 8 8 8 8 8 7
37 38 39 39 39 39 39 38 36 36 35 34 33 33 31 30 29 29 30 30 30 28 26 25 23 21 19 17 15 14 13 12 12 12 11 10 10 9 9 9 9 8 8
38 39 39 40 41 41 41 41 40 40 39 38 37 36 35 32 31 31 31 31 32 31 30 28 26 24 22 20 18 17 16 15 15 14 13 12 12 11 11 10 10 9 8
37 38 39 39 40 40 41 42 42 42 41 41 40 39 37 36 35 33 32 31 31 32 32 30 29 27 26 24 22 20 19 18 18 17 15 14 14 13 13 12 12 11 10
35 36 37 38 38 39 40 40 42 42 42 41 41 41 40 39 37 35 34 32 32 32 32 32 30 29 28 27 26 24 23 21 21 20 19 17 16 15 15 14 14 13 12
32 33 34 35 36 36 37 37 38 40 41 41 41 41 42 41 40 39 37 35 34 32 32 33 33 31 30 29 28 27 27 25 23 22 22 20 19 17 16 16 16 15 15
29 30 31 32 33 33 34 34 35 37 38 39 40 41 41 42 42 41 40 39 36 33 32 33 33 33 32 31 30 29 29 28 26 25 24 23 22 21 19 18 18 17 17
27 27 28 28 28 29 31 32 33 34 36 37 39 40 40 41 42 43 42 40 39 37 34 33 33 31 32 32 31 30 30 30 29 28 27 26 25 23 22 21 20 20 19
24 24 24 25 25 25 27 28 30 31 33 34 36 38 39 39 41 41 42 42 41 39 36 34 33 33 31 32 32 30 30 31 31 30 29 28 26 25 24 23 22 21 21
22 21 20 20 20 21 22 24 26 28 30 32 33 35 36 37 38 39 40 41 41 40 37 35 35 34 32 32 33 33 33 33 33 31 31 29 28 27 26 25 24 24 23
21 20 18 17 17 18 19 20 22 24 25 27 29 31 33 34 36 38 39 40 40 39 38 36 37 35 34 33 33 34 35 34 34 33 32 31 29 28 28 27 27 26 26
20 19 17 16 15 15 15 16 17 19 21 23 25 27 29 31 34 36 37 38 39 39 38 38 38 37 36 35 35 35 35 35 36 35 35 34 32 31 29 28 27 27 27
Wind_Direction
84 78 75 75 74 73 71 66 60 57 52 49 47 44 40 34 27 15 344 284 245 231 228 226 226 224 224 225 226 229 233 234 235 238 242 248 255 263 273 285 296 308 321
56 67 66 69 70 68 67 61 55 51 47 44 43 41 39 34 30 25 11 338 270 242 235 229 226 224 224 224 225 228 232 236 237 239 243 249 253 260 267 276 286 298 307
269 278 288 306 344 9 22 27 26 24 23 26 30 33 32 31 27 22 16 3 317 262 241 233 230 228 226 225 226 228 233 239 242 243 244 247 251 256 261 267 278 286 299
270 271 274 276 277 279 281 284 291 302 317 331 343 1 12 17 18 17 15 10 351 295 256 242 237 234 232 227 228 230 235 242 244 243 243 245 249 252 254 258 265 271 286
278 276 275 275 275 274 272 272 272 274 277 282 288 293 309 332 350 358 1 359 351 326 284 259 251 248 241 232 231 233 236 240 242 240 240 242 245 244 243 244 250 263 277
282 279 278 275 273 272 270 268 267 268 269 269 270 270 274 283 299 320 335 335 334 328 311 288 271 259 246 237 235 236 238 239 239 239 238 235 235 233 236 236 244 256 265
283 279 275 274 272 270 268 267 265 265 265 264 264 263 265 268 272 279 292 308 315 316 312 299 284 272 259 246 237 234 234 235 235 236 231 226 223 223 225 226 232 243 239
285 280 274 271 269 268 267 265 264 262 262 261 261 260 261 262 264 267 271 278 289 297 297 289 280 276 270 259 250 244 236 234 230 223 216 206 200 203 206 208 210 210 196
281 279 275 270 267 264 263 262 261 260 259 259 259 258 259 259 261 263 266 269 273 278 282 279 274 270 267 262 258 245 235 230 221 208 201 189 186 188 190 186 178 170 158
279 276 273 271 267 264 261 259 257 256 256 256 256 256 256 257 257 260 263 264 266 267 267 268 268 268 263 259 254 241 228 223 215 205 192 182 180 178 179 173 167 158 151
275 275 273 271 269 267 264 260 258 257 255 254 254 254 253 254 255 256 258 261 262 262 260 259 259 261 259 253 247 235 225 219 210 203 195 185 181 178 180 175 165 157 149
273 272 271 270 268 267 267 264 260 257 258 256 254 254 254 253 254 254 255 257 257 256 256 254 251 251 251 249 242 232 223 217 210 203 197 190 189 188 185 177 169 162 153
273 270 268 268 266 265 264 264 264 262 260 258 256 255 256 256 253 252 253 253 254 252 251 250 248 246 246 244 237 231 226 221 217 206 198 194 197 192 187 181 176 170 160
271 269 267 265 264 262 261 260 261 261 261 259 258 257 254 255 255 254 252 251 250 250 248 245 245 244 242 241 236 233 231 227 222 214 209 206 205 200 194 191 188 182 174
271 269 267 266 263 261 260 257 256 256 257 258 257 257 256 255 255 257 256 253 248 246 245 244 242 242 239 237 234 233 231 229 228 224 221 217 213 207 203 201 198 194 191
273 270 269 267 265 263 261 259 257 255 254 256 257 257 255 255 254 255 257 257 251 245 242 241 239 240 239 237 234 233 231 231 231 231 227 225 224 219 215 211 208 206 206
275 273 270 268 267 265 263 262 259 256 255 254 255 256 254 253 254 255 258 260 254 247 242 239 238 238 238 238 237 236 235 236 236 234 231 230 229 228 225 221 218 218 219
277 275 273 271 269 267 265 263 261 258 257 255 255 255 255 253 253 255 256 258 256 250 245 242 239 238 237 237 237 236 236 236 237 235 233 233 233 232 230 228 227 226 227
280 278 275 274 271 269 267 265 263 261 259 257 255 254 254 254 253 254 256 257 257 254 249 243 239 236 236 235 235 235 235 235 235 235 234 234 235 235 234 233 233 235 236
284 281 278 275 273 270 268 266 264 262 260 258 257 254 252 252 252 253 253 254 255 253 250 246 240 237 236 235 234 235 234 235 234 235 236 235 236 237 237 238 238 240 242
289 286 282 279 275 271 269 267 265 263 260 258 257 255 253 251 251 251 252 252 252 252 250 249 242 238 236 236 236 236 235 233 233 233 236 237 237 237 238 241 242 243 245
298 293 288 284 278 272 270 270 268 264 261 259 257 255 253 251 250 249 249 249 249 250 249 247 242 239 237 235 236 237 235 234 234 234 234 236 238 239 239 241 244 246 248
310 304 295 289 283 278 275 272 269 266 264 261 258 255 253 251 248 246 245 246 246 246 246 243 239 237 237 235 235 235 233 233 234 234 235 234 236 240 241 242 244 247 249
323 319 310 300 292 286 281 277 273 270 265 262 259 256 252 249 246 244 242 242 242 242 242 240 238 235 236 236 235 233 232 233 233 235 235 234 236 239 241 242 244 245 248
337 332 325 316 306 298 291 286 280 275 269 264 260 255 250 248 246 243 240 239 240 239 237 237 236 235 235 234 235 233 232 232 233 235 236 235 235 237 239 241 244 245 249
351 348 343 337 328 319 310 300 292 284 277 270 263 255 250 248 245 242 240 238 237 235 234 235 234 234 234 235 235 234 233 233 233 234 235 235 235 236 238 239 242 245 248
Height
5923 5922 5921 5920 5920 5919 5919 5918 5918 5918 5918 5917 5917 5916 5916 5915 5914 5914 5914 5913 5913 5913 5912 5912 5912 5912 5912 5912 5913 5914 5914 5914 5915 5915 5916 5916 5916 5916 5916 5916 5916 5915 5915
5923 5923 5922 5921 5921 5920 5920 5919 5919 5919 5919 5918 5918 5917 5916 5916 5915 5914 5914 5913 5913 5912 5912 5912 5911 5911 5911 5911 5912 5912 5913 5913 5913 5914 5914 5915 5915 5915 5915 5915 5915 5915 5914
5923 5923 5922 5922 5921 5921 5921 5920 5920 5920 5919 5919 5918 5918 5917 5916 5915 5915 5914 5913 5913 5912 5912 5911 5911 5910 5910 5910 5911 5911 5912 5912 5912 5912 5912 5913 5913 5914 5914 5914 5914 5914 5914
5923 5923 5922 5922 5922 5921 5921 5921 5920 5920 5919 5919 5918 5918 5917 5916 5916 5915 5914 5913 5913 5912 5912 5911 5910 5910 5910 5909 5910 5910 5910 5910 5910 5910 5911 5911 5912 5912 5913 5913 5913 5913 5913
5922 5922 5922 5921 5921 5921 5921 5920 5920 5920 5919 5919 5918 5918 5917 5916 5916 5915 5914 5913 5913 5912 5912 5911 5910 5909 5909 5909 5909 5909 5909 5909 5909 5909 5909 5910 5910 5910 5911 5912 5912 5912 5912
5921 5921 5921 5920 5920 5920 5920 5920 5919 5919 5919 5918 5918 5917 5917 5916 5915 5915 5914 5913 5913 5912 5911 5911 5910 5909 5909 5908 5908 5909 5908 5908 5908 5908 5908 5908 5909 5909 5910 5911 5911 5912 5911
5920 5919 5919 5918 5918 5918 5918 5918 5918 5918 5917 5917 5917 5916 5916 5915 5915 5914 5914 5913 5912 5912 5911 5910 5909 5909 5908 5908 5908 5908 5908 5907 5907 5907 5907 5907 5908 5908 5909 5910 5910 5911 5911
5917 5917 5916 5916 5916 5916 5916 5915 5915 5915 5915 5915 5915 5915 5914 5914 5914 5913 5913 5912 5912 5911 5911 5910 5909 5909 5908 5908 5907 5907 5907 5907 5906 5906 5906 5907 5907 5908 5908 5909 5910 5910 5910
5915 5914 5913 5913 5913 5913 5912 5912 5912 5912 5912 5912 5912 5912 5912 5912 5912 5912 5912 5911 5911 5910 5910 5909 5909 5908 5908 5907 5907 5907 5906 5906 5906 5906 5906 5906 5907 5907 5908 5909 5909 5910 5910
5912 5911 5910 5909 5909 5909 5908 5908 5908 5908 5908 5908 5909 5909 5909 5909 5909 5909 5909 5909 5909 5909 5909 5908 5908 5908 5907 5907 5906 5906 5906 5906 5906 5906 5906 5906 5907 5907 5908 5909 5909 5910 5910
5909 5908 5906 5906 5905 5904 5904 5904 5904 5904 5904 5904 5905 5905 5905 5906 5906 5906 5907 5907 5907 5907 5907 5907 5907 5907 5906 5906 5906 5905 5905 5905 5905 5905 5906 5906 5907 5907 5908 5909 5910 5910 5911
5905 5904 5902 5902 5901 5900 5899 5899 5898 5899 5899 5900 5900 5901 5901 5902 5902 5903 5903 5904 5904 5904 5905 5905 5905 5905 5905 5905 5905 5905 5905 5905 5905 5905 5905 5906 5907 5907 5908 5909 5910 5910 5911
5898 5897 5897 5896 5896 5895 5894 5894 5893 5894 5894 5895 5895 5896 5897 5897 5898 5899 5899 5900 5901 5901 5902 5902 5903 5903 5903 5904 5904 5904 5904 5904 5904 5905 5905 5906 5906 5907 5908 5909 5910 5910 5911
5890 5889 5888 5888 5888 5888 5888 5888 5888 5888 5888 5889 5889 5890 5891 5892 5893 5893 5894 5895 5896 5897 5898 5899 5900 5900 5901 5902 5902 5902 5903 5903 5904 5904 5905 5905 5906 5907 5908 5909 5909 5910 5911
5882 5880 5879 5879 5879 5879 5879 5880 5880 5881 5881 5882 5882 5883 5885 5886 5887 5888 5888 5889 5890 5892 5893 5895 5896 5897 5898 5899 5900 5901 5901 5902 5902 5903 5904 5905 5905 5906 5907 5908 5909 5910 5911
5872 5870 5869 5869 5869 5869 5869 5870 5871 5872 5873 5874 5875 5876 5877 5879 5880 5881 5882 5883 5884 5886 5888 5890 5892 5893 5894 5896 5897 5898 5899 5900 5901 5902 5903 5903 5904 5905 5906 5907 5908 5909 5910
5862 5860 5859 5859 5858 5858 5858 5859 5861 5862 5864 5865 5867 5868 5869 5871 5872 5874 5875 5876 5877 5879 5881 5883 5886 5888 5890 5892 5893 5895 5896 5897 5898 5899 5901 5902 5903 5904 5905 5906 5907 5908 5909
5852 5850 5849 5848 5848 5848 5848 5848 5849 5851 5853 5856 5857 5859 5861 5862 5864 5866 5868 5869 5871 5872 5874 5876 5879 5882 5885 5887 5889 5891 5892 5894 5895 5897 5898 5899 5901 5902 5903 5904 5905 5906 5907
5842 5840 5839 5837 5837 5837 5837 5837 5838 5840 5842 5844 5847 5849 5851 5853 5855 5858 5860 5861 5863 5865 5867 5869 5872 5875 5878 5881 5883 5886 5888 5890 5891 5893 5895 5896 5898 5899 5901 5902 5903 5904 5905
5833 5831 5829 5827 5826 5826 5826 5826 5827 5828 5830 5832 5835 5838 5840 5843 5846 5848 5851 5853 5855 5858 5860 5862 5865 5869 5872 5875 5877 5880 5883 5885 5887 5889 5891 5892 5894 5896 5897 5899 5900 5902 5903
5825 5822 5820 5818 5817 5816 5816 5816 5816 5817 5819 5821 5823 5826 5828 5832 5835 5838 5841 5844 5847 5849 5852 5855 5857 5861 5864 5868 5871 5873 5876 5879 5882 5884 5886 5888 5890 5892 5894 5895 5897 5898 5899
5817 5814 5811 5809 5808 5807 5806 5806 5806 5807 5808 5809 5811 5814 5817 5820 5823 5827 5830 5834 5837 5841 5844 5847 5850 5853 5856 5860 5863 5865 5869 5873 5876 5878 5881 5883 5885 5887 5889 5891 5893 5894 5895
5811 5807 5804 5802 5800 5799 5798 5797 5797 5797 5797 5798 5800 5802 5805 5808 5811 5815 5819 5823 5827 5831 5835 5839 5842 5845 5848 5852 5856 5859 5862 5866 5869 5872 5875 5878 5880 5882 5884 5886 5888 5890 5891
5806 5802 5798 5795 5793 5792 5790 5789 5788 5788 5788 5788 5789 5790 5793 5796 5799 5803 5808 5812 5816 5821 5826 5830 5834 5837 5840 5844 5848 5851 5855 5859 5862 5866 5869 5872 5875 5877 5879 5881 5883 5884 5886
5803 5798 5794 5791 5788 5786 5784 5782 5781 5779 5779 5779 5779 5780 5782 5785 5788 5792 5796 5801 5805 5811 5816 5820 5825 5829 5832 5836 5839 5843 5847 5851 5855 5859 5862 5865 5868 5871 5873 5875 5877 5879 5880
5801 5796 5792 5788 5785 5782 5779 5777 5774 5773 5772 5771 5771 5771 5773 5775 5777 5781 5785 5790 5795 5800 5805 5810 5815 5819 5823 5827 5831 5835 5839 5843 5847 5851 5854 5858 5861 5864 5867 5870 5871 5873 5874